Location: Cheching
(60.0667°N, 164.2167°W)
Time: 21:31:11
(UTC+00:00)

NOAA 15 - Pass Details

Date: 02 February 2021
Orbit: 798 x 812 km, 98.7° (Epoch: 07 March)

Event Time Altitude Azimuth Distance (km) Brightness Sun altitude
Rises 03:59:29 0° 128° (SE) 3,317 7.5 -6.0°
Reaches altitude 10° 04:01:57 10° 121° (ESE) 2,392 6.7 -6.3°
Maximum altitude 04:06:46 37° 55° (NE) 1,240 5.1 -6.8°
Drops below altitude 10° 04:11:37 10° 350° (N) 2,412 7.0 -7.4°
Sets 04:14:06 0° 342° (NNW) 3,349 7.8 -7.7°
